Change the Weather History Date:

Friday, April 18, 2014

  Actual Average (KPCZ) Record (KPCZ)
Temperature  
Mean Temperature 42 °F -  
Max Temperature 54 °F 58 °F 78 °F (1987)
Min Temperature 30 °F 35 °F 17 °F (1983)
Degree Days  
Heating Degree Days 23    
Moisture  
Dew Point 26 °F    
Average Humidity 57    
Maximum Humidity 89    
Minimum Humidity 28    
Precipitation  
Precipitation 0.00 in - - ()
Sea Level Pressure  
Sea Level Pressure 30.36 in    
Wind  
Wind Speed 5 mph (North)    
Max Wind Speed 14 mph    
Max Gust Speed -    
Visibility 10 miles    
Events      
Averages and records for this station are not official NWS values.
T = Trace of Precipitation, MM = Missing Value Source: NWS Daily Summary

Daily Weather History Graph

Daily Weather History Graph

Search for Another Location

Airport or City:

Trip Planner

Search our weather history database for the weather conditions in past years. The results will help you decide how hot, cold, wet, or windy it might be!

Date:

Astronomy

Apr. 18, 2014 Rise Set
Actual Time 6:08 AM CDT 7:44 PM CDT
Civil Twilight 5:38 AM CDT 8:15 PM CDT
Nautical Twilight 5:01 AM CDT 8:52 PM CDT
Astronomical Twilight 4:22 AM CDT 9:32 PM CDT
Moon 11:35 PM CDT (4/18) 8:26 AM CDT (4/18)
Length of Visible Light 14h 36m
Length of Day
13h 36m
Waning Gibbous, 87% of the Moon is Illuminated
Apr 18
Waning Gibbous
Apr 22
Last Quarter
Apr 29
New
May 6
First Quarter
May 14
Full

Hourly Weather History & Observations

Time (CDT) Temp. Windchill Dew Point Humidity Pressure Visibility Wind Dir Wind Speed Gust Speed Precip Events Conditions
12:56 AM 36.0 °F 32.1 °F 29.1 °F 76% 30.31 in 10.0 mi North 4.6 mph - N/A   Overcast
1:56 AM 36.0 °F 32.1 °F 29.1 °F 76% 30.32 in 10.0 mi NW 4.6 mph - N/A   Overcast
2:56 AM 34.9 °F 32.0 °F 29.1 °F 79% 30.32 in 10.0 mi NW 3.5 mph - N/A   Overcast
3:56 AM 36.0 °F 31.1 °F 28.0 °F 73% 30.32 in 10.0 mi NNW 5.8 mph - N/A   Overcast
4:56 AM 34.9 °F 30.8 °F 28.0 °F 76% 30.34 in 10.0 mi North 4.6 mph - N/A   Overcast
5:56 AM 32.9 °F 29.8 °F 26.1 °F 76% 30.36 in 10.0 mi North 3.5 mph - N/A   Partly Cloudy
6:56 AM 30.0 °F - 27.1 °F 89% 30.38 in 10.0 mi Calm Calm - N/A   Clear
7:56 AM 36.0 °F 32.1 °F 26.1 °F 67% 30.39 in 10.0 mi North 4.6 mph - N/A   Clear
8:56 AM 37.9 °F 31.5 °F 26.1 °F 62% 30.40 in 10.0 mi North 9.2 mph - N/A   Clear
9:56 AM 41.0 °F 35.2 °F 26.6 °F 57% 30.38 in 10.0 mi North 9.2 mph - N/A   Clear
10:56 AM 43.9 °F 39.3 °F 25.2 °F 48% 30.40 in 10.0 mi NE 8.1 mph - N/A   Clear
11:56 AM 45.9 °F 42.9 °F 25.2 °F 44% 30.38 in 10.0 mi Variable 5.8 mph - N/A   Clear
12:56 PM 48.2 °F - 24.8 °F 40% 30.36 in 10.0 mi Variable 4.6 mph - N/A   Clear
1:56 PM 50.9 °F - 22.1 °F 32% 30.36 in 10.0 mi WNW 6.9 mph - N/A   Clear
2:56 PM 52.9 °F - 21.0 °F 29% 30.36 in 10.0 mi West 6.9 mph - N/A   Clear
3:56 PM 53.6 °F - 21.2 °F 28% 30.34 in 10.0 mi Variable 3.5 mph - N/A   Clear
4:56 PM 54.0 °F - 23.0 °F 30% 30.34 in 10.0 mi North 8.1 mph - N/A   Clear
5:56 PM 54.0 °F - 22.1 °F 29% 30.34 in 10.0 mi North 4.6 mph - N/A   Clear
7:56 PM 47.8 °F - 25.2 °F 41% 30.34 in 10.0 mi ENE 8.1 mph - N/A   Clear
8:56 PM 45.9 °F 43.6 °F 30.0 °F 54% 30.36 in 10.0 mi East 4.6 mph - N/A   Clear
9:56 PM 42.8 °F 35.8 °F 30.2 °F 61% 30.36 in 10.0 mi East 13.8 mph - N/A   Clear
10:56 PM 37.9 °F 33.5 °F 29.1 °F 71% 30.38 in 10.0 mi East 5.8 mph - N/A   Clear
11:56 PM 36.9 °F 31.4 °F 27.1 °F 68% 30.39 in 10.0 mi East 6.9 mph - N/A   Clear